STARLINK-11508, 62515

Orbit data source: Space-Track

STARLINK-11508, 62515 is a payload satellite owned by SpaceX/Seattle (US) in LEO that was launched on Wed, 08 Jan 2025 UTC via an FALCON 9 launch vehicle from the Air Force Eastern Test Range (AFETR). Payloads include a variety of satellites, spacecraft, and rockets equipped with specific instruments for various scientific and technological missions. These include communications satellites like Starlink; space stations such as the ISS; scientific satellites like the Hubble; Earth observation satellites from companies like Planet Labs, Umbra, and HawkEye 360; GPS; miniature CubeSats for education and research; and military/defense satellites.

Loading next visibility...
STARLINK-11508 details
Identifier
62515, 2025-004E
Orbit
LEO
Last TLE update1 day ago
Origin
Flag of USSpaceX/Seattle (US)
ManufacturerSpaceX/Seattle
MissionOperational spacecraft
Bus & MotorSTARLINK V2M, Unknown motor
Mass730 kg wet, ~700 kg dry
Launch date (UTC)
2025-01-08 (1 month ago)
Launch vehicle
FALCON 9
Launch site
Air Force Eastern Test Range (AFETR)
Object type
Payload
Rocket body
Debris
Shape & HBRUnknown
Radar Cross SectionLarge (>1 m²)

Expand to show TLE details & history

TLE from 1 day ago
0 STARLINK-11508
1 62515U 25004E   25035.12951505  .00002618  00000-0  17899-4 0  9998
2 62515  42.9978 314.1843 0001120 304.0169  56.0595 15.77856922  4513
Epoch: 2025-02-04T03:06Z
Definitive object data (Epoch: 2025-02-04T03:06:30.1Z)
Latitude0.00001°
Longitude133.01966°
Altitude335.864 km
Speed7.709 km/s
True Right ascension20h 56m 44s
True Declination0° 00' 00"
Sunlit
Object was in daylight at TLE epoch
Visualization TLE readout
Latitude33.80123°
Longitude-99.6143°
Altitude338.445 km
Speed7.71 km/s
Apparent Right ascension01h 43m 14s
Apparent Declination-4° 14' 23"
Sunlit
Object is in full shadow
Visualization observer readout
Local Sidereal Time09:01:16
Azimuth279.481° WNW
Elevation-17.629°
Doppler factor1
Orbital elements
Apogee altitude339.254 km
Perigee altitude337.749 km
Semi-major axis6,716.639 km
Eccentricity0.000112
Inclination42.9978°
RAAN314.1843°
Arg. of periapsis304.0169°
True anomaly56.07015°
Mean anomaly56.0595°
Eccentric anomaly56.06482°
Mean motion3.94289 °/min
BSTAR0.000017899
Orbital period91.3 mins
Loading maneuver chart data...
Loading historical data...
Loading historical data...
Loading historical data...
Loading historical data...
Loading historical data...
Loading historical data...
Loading historical data...

STARLINK-11508 Visibility forecast

Observer location: undefined°, undefined

Span
Click to sort rows by Start time (UTC) header in descending order
Start Az.
Max El. time (UTC)
Max El. Az.
Max El.
End time (UTC)
End Az.
4 mins2025-02-05 21:53:00.297Z234.354° WSW2025-02-05 21:55:00.297Z177.602° S39.638°2025-02-05 21:57:00.297Z81.683° E
4 mins2025-02-06 02:41:00.297Z261.157° W2025-02-06 02:42:00.297Z228.536° WSW28.868°2025-02-06 02:45:00.297Z138.735° SSE
|